Regional Weather Roundup
Issued by NWS Bismarck, ND

Home | Current Version | Previous Version | Text Only | Print | Product List | Glossary Off
Versions: 1 2 3 4 5 6 7 8 9 10 11 12 13 14 15 16 17 18 19 20 21 22 23 24 25 26 27 28 29 30 31 32 33 34 35 36 37 38 39 40 41 42 43 44 45 46 47 48 49 50

000
ASUS43 KBIS 270020
RWRBIS

NWR BROADCAST TEXT
NATIONAL WEATHER SERVICE BISMARCK ND
700 PM CDT THU MAR 26 2015

NOTE: "FAIR" INDICATES FEW OR NO CLOUDS BELOW 12,000 FEET WITH NO
SIGNIFICANT WEATHER AND/OR OBSTRUCTIONS TO VISIBILITY.


CITY           SKY/WX    TMP DP  RH WIND       PRES   REMARKS
WILLISTON      PTSUNNY   45  25  45 SE5       30.15F
MINOT          SUNNY     36  19  50 E6        30.22R
MINOT AFB      SUNNY     36  23  59 SE3       30.21S
BISMARCK       CLOUDY    38  19  46 NE6       30.23S
DICKINSON      PTSUNNY   37  28  70 E8        30.15S
GARRISON         N/A     38  22  52 SE5       30.21R
HETTINGER ARPT MOSUNNY   39  29  67 SE8       30.17R
JAMESTOWN      CLEAR     32  12  43 NE14      30.24R
BEACH          MOCLDY    41  32  70 E13       30.13S
CARRINGTON     FAIR      32  14  47 NE12      30.26S
CROSBY         FAIR      39  27  60 SE8       30.18R
HARVEY         FAIR      32  16  51 E5        30.25S
HAZEN          FAIR      37  19  48 NE3       30.22S
LINTON         FAIR      36  18  48 N6        30.22S
MANDAN         CLOUDY    36  19  51 E3        30.22S
OAKES            N/A     32  14  47 N14       30.25R
RUGBY          FAIR      32  18  55 E6        30.25S
TIOGA          FAIR      37  25  60 SE12      30.20S
WATFORD CITY   FAIR      41  27  56 SE8       30.14F
$$

CITY           SKY/WX    TMP DP  RH WIND       PRES   REMARKS
GRAND FORKS    MOCLDY    29  15  56 N13       30.29R WCI  19
GRAND FORKS AF MOCLDY    29  14  54 N10G22    30.29R WCI  20
DEVILS LAKE    MOCLDY    30  18  59 NE9       30.26S
FARGO          CLEAR     32   8  36 N18       30.26R
CANDO          CLOUDY    30  18  59 E7        30.27S
CAVALIER       FAIR      28  18  64 N12       30.31S WCI  18
GWINNER        CLEAR     32  12  43 N20         N/A
ROLLA          CLOUDY    28  18  64 E6        30.26R
WALHALLA         N/A     28  19  69 N10       30.31S WCI  19
$$

CITY           SKY/WX    TMP DP  RH WIND       PRES   REMARKS
ABERDEEN       CLEAR     36  13  38 N17       30.24R
MOBRIDGE       CLOUDY    40  21  46 N6        30.18S
BUFFALO          N/A     44  31  60 E12       30.07R
RAPID CITY     MOSUNNY   46  28  49 NE12      30.12S
GLASGOW        CLOUDY    48  33  56 E17       30.05F
SIDNEY         CLOUDY    43  34  70 E9        30.15S
WOLF POINT     CLOUDY    46  35  65 E14       30.10F
GLENDIVE         N/A     46  34  61 E10       30.11F
MILES CITY     CLOUDY    55  31  39 NE8       30.06R
BAKER          CLOUDY    47  30  51 E13       30.12R
$$

CITY           SKY/WX    TMP DP  RH WIND       PRES   REMARKS
BILLINGS       CLOUDY    62  34  35 NW15      30.07F
GREAT FALLS    MOSUNNY   64  33  31 W23G30    30.08R
REGINA         CLOUDY    36  30  80 SE15      30.15S
ESTEVAN        CLOUDY    36  27  69 SE9       30.19S
$$




USA.gov is the U.S. government's official web portal to all federal, state and local government web resources and services.